QPF
0.00 0.00 0.00 0.00 0.00 0.00 0.00 0.00 0.00 0.00 0.00 0.00 0.00 0.00 0.00 0.00 0.00 0.01 0.05 0.17 0.36 0.50 0.50 0.41 0.29 0.20 0.13 0.07 0.03 0.01 0.01 0.01 0.02 0.02 0.01 0.01 0.01 0.01 0.01 0.01 0.01 0.01 0.01
0.00 0.00 0.00 0.00 0.00 0.00 0.00 0.00 0.00 0.00 0.00 0.00 0.00 0.00 0.00 0.00 0.00 0.00 0.01 0.04 0.15 0.36 0.55 0.62 0.53 0.40 0.26 0.16 0.09 0.05 0.02 0.01 0.02 0.04 0.03 0.01 0.02 0.03 0.04 0.01 0.01 0.01 0.01
0.00 0.00 0.00 0.00 0.00 0.00 0.00 0.00 0.00 0.00 0.00 0.00 0.00 0.00 0.00 0.00 0.00 0.00 0.00 0.00 0.02 0.09 0.24 0.45 0.58 0.57 0.42 0.29 0.19 0.12 0.08 0.04 0.02 0.04 0.04 0.02 0.02 0.02 0.02 0.01 0.01 0.01 0.01
0.00 0.00 0.00 0.00 0.00 0.00 0.00 0.00 0.00 0.00 0.00 0.00 0.00 0.00 0.00 0.00 0.00 0.00 0.01 0.01 0.01 0.02 0.05 0.14 0.32 0.51 0.53 0.44 0.32 0.21 0.16 0.11 0.07 0.05 0.04 0.02 0.02 0.03 0.03 0.02 0.02 0.02 0.01
0.00 0.00 0.00 0.00 0.00 0.00 0.00 0.01 0.01 0.01 0.01 0.02 0.02 0.02 0.02 0.01 0.01 0.01 0.02 0.02 0.02 0.02 0.02 0.03 0.10 0.24 0.40 0.47 0.43 0.33 0.23 0.17 0.11 0.07 0.04 0.02 0.02 0.03 0.03 0.03 0.02 0.01 0.02
0.00 0.00 0.00 0.00 0.00 0.01 0.01 0.01 0.02 0.03 0.04 0.04 0.05 0.05 0.05 0.02 0.01 0.01 0.02 0.03 0.04 0.04 0.04 0.04 0.04 0.07 0.16 0.30 0.40 0.40 0.32 0.20 0.13 0.09 0.06 0.04 0.03 0.03 0.02 0.02 0.02 0.01 0.02
0.00 0.00 0.01 0.01 0.01 0.01 0.02 0.02 0.03 0.04 0.05 0.06 0.06 0.07 0.07 0.06 0.05 0.02 0.01 0.04 0.06 0.06 0.06 0.06 0.04 0.03 0.05 0.11 0.21 0.29 0.30 0.22 0.14 0.10 0.10 0.08 0.07 0.05 0.02 0.01 0.02 0.02 0.01
0.00 0.01 0.01 0.01 0.02 0.02 0.03 0.04 0.04 0.06 0.06 0.07 0.08 0.08 0.09 0.08 0.08 0.05 0.02 0.05 0.08 0.06 0.05 0.05 0.05 0.05 0.04 0.04 0.07 0.13 0.18 0.17 0.12 0.07 0.07 0.11 0.12 0.10 0.04 0.02 0.02 0.03 0.04
0.00 0.01 0.01 0.02 0.02 0.03 0.04 0.04 0.06 0.06 0.06 0.07 0.08 0.10 0.11 0.11 0.11 0.06 0.04 0.09 0.10 0.07 0.05 0.03 0.03 0.04 0.03 0.01 0.02 0.05 0.08 0.11 0.10 0.07 0.05 0.08 0.08 0.08 0.06 0.03 0.04 0.06 0.08
0.00 0.01 0.01 0.02 0.03 0.04 0.04 0.05 0.06 0.07 0.07 0.07 0.08 0.10 0.13 0.15 0.14 0.07 0.04 0.08 0.09 0.07 0.06 0.04 0.02 0.02 0.02 0.01 0.01 0.02 0.04 0.06 0.07 0.05 0.03 0.02 0.03 0.04 0.03 0.03 0.04 0.06 0.08
0.00 0.01 0.02 0.03 0.04 0.04 0.05 0.06 0.07 0.07 0.08 0.07 0.08 0.10 0.12 0.15 0.13 0.07 0.04 0.06 0.06 0.04 0.02 0.01 0.01 0.01 0.00 0.00 0.01 0.02 0.02 0.03 0.06 0.06 0.05 0.04 0.05 0.06 0.04 0.06 0.08 0.09 0.10
0.01 0.01 0.02 0.03 0.03 0.04 0.06 0.06 0.06 0.07 0.07 0.07 0.07 0.08 0.11 0.13 0.10 0.07 0.04 0.03 0.03 0.03 0.02 0.00 0.01 0.00 0.00 0.00 0.00 0.01 0.01 0.02 0.05 0.07 0.07 0.06 0.05 0.05 0.06 0.08 0.12 0.16 0.14
0.01 0.01 0.02 0.02 0.03 0.04 0.05 0.06 0.07 0.08 0.10 0.09 0.07 0.07 0.08 0.09 0.08 0.06 0.04 0.02 0.01 0.01 0.01 0.00 0.00 0.00 0.00 0.00 0.00 0.01 0.03 0.03 0.05 0.07 0.08 0.07 0.05 0.04 0.05 0.08 0.11 0.15 0.16
0.01 0.01 0.02 0.02 0.02 0.03 0.05 0.06 0.07 0.09 0.10 0.09 0.08 0.08 0.07 0.07 0.06 0.04 0.03 0.01 0.01 0.00 0.00 0.00 0.00 0.00 0.00 0.01 0.01 0.03 0.06 0.07 0.07 0.08 0.09 0.08 0.06 0.05 0.05 0.05 0.05 0.06 0.09
0.02 0.01 0.02 0.02 0.02 0.02 0.03 0.04 0.05 0.07 0.06 0.05 0.06 0.08 0.08 0.07 0.05 0.02 0.02 0.02 0.01 0.00 0.01 0.01 0.01 0.00 0.01 0.02 0.03 0.06 0.11 0.13 0.13 0.13 0.11 0.08 0.06 0.05 0.05 0.04 0.02 0.02 0.02
0.03 0.02 0.02 0.02 0.02 0.02 0.02 0.03 0.04 0.04 0.03 0.02 0.02 0.02 0.03 0.03 0.02 0.01 0.00 0.01 0.00 0.00 0.01 0.02 0.01 0.02 0.02 0.04 0.05 0.10 0.16 0.20 0.20 0.19 0.14 0.09 0.07 0.05 0.05 0.04 0.03 0.02 0.01
0.04 0.04 0.02 0.02 0.02 0.02 0.02 0.03 0.05 0.06 0.05 0.02 0.01 0.01 0.01 0.01 0.00 0.01 0.01 0.00 0.00 0.00 0.01 0.02 0.03 0.03 0.04 0.05 0.07 0.13 0.21 0.24 0.28 0.29 0.21 0.13 0.08 0.06 0.05 0.04 0.04 0.03 0.02
0.05 0.05 0.03 0.03 0.03 0.03 0.03 0.03 0.04 0.06 0.07 0.05 0.02 0.01 0.01 0.01 0.01 0.01 0.01 0.01 0.01 0.01 0.01 0.03 0.04 0.04 0.05 0.07 0.09 0.16 0.25 0.30 0.33 0.37 0.30 0.17 0.11 0.07 0.06 0.05 0.03 0.03 0.03
0.06 0.05 0.03 0.03 0.03 0.03 0.03 0.04 0.04 0.04 0.06 0.04 0.03 0.02 0.02 0.02 0.02 0.01 0.01 0.01 0.02 0.01 0.02 0.03 0.04 0.04 0.05 0.08 0.12 0.18 0.28 0.35 0.36 0.39 0.34 0.21 0.13 0.08 0.06 0.05 0.04 0.03 0.02
0.06 0.07 0.05 0.03 0.02 0.03 0.03 0.04 0.04 0.06 0.06 0.04 0.03 0.03 0.02 0.02 0.02 0.02 0.01 0.02 0.03 0.02 0.02 0.03 0.03 0.04 0.06 0.09 0.14 0.21 0.30 0.38 0.40 0.39 0.32 0.21 0.13 0.09 0.06 0.05 0.04 0.02 0.02
0.05 0.06 0.06 0.03 0.02 0.03 0.04 0.04 0.05 0.06 0.06 0.04 0.02 0.02 0.02 0.02 0.03 0.02 0.02 0.02 0.02 0.02 0.02 0.02 0.03 0.04 0.06 0.11 0.16 0.24 0.31 0.38 0.39 0.35 0.27 0.17 0.11 0.09 0.07 0.04 0.03 0.02 0.01
0.05 0.06 0.05 0.03 0.02 0.02 0.03 0.04 0.04 0.04 0.04 0.03 0.02 0.01 0.01 0.02 0.02 0.02 0.03 0.03 0.03 0.02 0.02 0.03 0.03 0.05 0.08 0.13 0.18 0.26 0.31 0.35 0.34 0.28 0.20 0.13 0.08 0.06 0.04 0.03 0.01 0.01 0.00
0.05 0.05 0.04 0.03 0.02 0.02 0.03 0.05 0.03 0.03 0.03 0.03 0.03 0.03 0.03 0.04 0.04 0.05 0.05 0.05 0.04 0.04 0.03 0.03 0.05 0.08 0.12 0.16 0.19 0.24 0.27 0.28 0.24 0.17 0.11 0.07 0.04 0.03 0.02 0.01 0.01 0.00 0.00
0.04 0.05 0.03 0.03 0.02 0.02 0.03 0.03 0.03 0.02 0.02 0.03 0.04 0.04 0.04 0.05 0.06 0.07 0.06 0.06 0.06 0.05 0.05 0.06 0.09 0.10 0.13 0.16 0.21 0.23 0.24 0.21 0.14 0.09 0.05 0.02 0.02 0.01 0.01 0.00 0.00 0.00 0.00
0.02 0.03 0.03 0.03 0.02 0.02 0.02 0.02 0.02 0.03 0.03 0.03 0.04 0.05 0.06 0.07 0.08 0.08 0.07 0.06 0.06 0.06 0.07 0.07 0.08 0.09 0.11 0.15 0.16 0.17 0.17 0.13 0.07 0.04 0.02 0.01 0.01 0.01 0.00 0.00 0.00 0.00 0.00
0.02 0.02 0.02 0.03 0.02 0.02 0.02 0.02 0.02 0.02 0.02 0.03 0.04 0.05 0.07 0.08 0.08 0.08 0.07 0.06 0.05 0.06 0.06 0.06 0.07 0.08 0.10 0.11 0.09 0.08 0.07 0.04 0.03 0.02 0.01 0.01 0.00 0.00 0.00 0.00 0.00 0.00 0.00
MSLP
1011.37 1011.12 1010.83 1010.51 1010.15 1009.76 1009.36 1008.97 1008.62 1008.32 1008.09 1007.92 1007.80 1007.72 1007.67 1007.64 1007.61 1007.60 1007.62 1007.65 1007.73 1007.84 1007.97 1008.12 1008.26 1008.37 1008.45 1008.48 1008.46 1008.43 1008.39 1008.40 1008.46 1008.61 1008.84 1009.16 1009.53 1009.93 1010.32 1010.66 1010.92 1011.11 1011.21
1011.15 1010.87 1010.54 1010.18 1009.78 1009.35 1008.92 1008.50 1008.12 1007.79 1007.52 1007.31 1007.15 1007.03 1006.95 1006.89 1006.86 1006.86 1006.90 1006.98 1007.12 1007.31 1007.52 1007.75 1007.97 1008.15 1008.27 1008.34 1008.35 1008.33 1008.31 1008.32 1008.39 1008.55 1008.81 1009.16 1009.56 1010.00 1010.43 1010.81 1011.12 1011.35 1011.48
1011.01 1010.69 1010.33 1009.92 1009.48 1009.01 1008.55 1008.10 1007.69 1007.33 1007.03 1006.78 1006.57 1006.41 1006.27 1006.17 1006.11 1006.09 1006.14 1006.25 1006.44 1006.68 1006.98 1007.29 1007.59 1007.85 1008.05 1008.18 1008.24 1008.25 1008.25 1008.27 1008.35 1008.52 1008.78 1009.13 1009.56 1010.02 1010.48 1010.91 1011.26 1011.54 1011.73
1010.93 1010.56 1010.16 1009.70 1009.22 1008.72 1008.23 1007.77 1007.34 1006.96 1006.63 1006.34 1006.09 1005.87 1005.67 1005.51 1005.39 1005.34 1005.35 1005.47 1005.67 1005.96 1006.32 1006.71 1007.10 1007.45 1007.74 1007.94 1008.07 1008.13 1008.16 1008.20 1008.29 1008.45 1008.70 1009.05 1009.47 1009.94 1010.43 1010.88 1011.29 1011.63 1011.89
1010.84 1010.43 1009.98 1009.48 1008.96 1008.44 1007.93 1007.45 1007.02 1006.63 1006.28 1005.96 1005.67 1005.39 1005.13 1004.90 1004.71 1004.59 1004.56 1004.64 1004.84 1005.16 1005.56 1006.01 1006.49 1006.93 1007.31 1007.60 1007.79 1007.92 1007.99 1008.05 1008.14 1008.29 1008.53 1008.86 1009.27 1009.74 1010.23 1010.72 1011.18 1011.58 1011.93
1010.68 1010.23 1009.73 1009.19 1008.64 1008.09 1007.57 1007.09 1006.65 1006.26 1005.91 1005.57 1005.25 1004.93 1004.61 1004.30 1004.04 1003.85 1003.77 1003.81 1003.99 1004.30 1004.73 1005.24 1005.77 1006.30 1006.76 1007.13 1007.41 1007.59 1007.71 1007.79 1007.89 1008.03 1008.25 1008.55 1008.95 1009.41 1009.91 1010.43 1010.94 1011.41 1011.85
1010.42 1009.92 1009.38 1008.80 1008.22 1007.65 1007.11 1006.63 1006.20 1005.81 1005.46 1005.12 1004.78 1004.42 1004.06 1003.71 1003.40 1003.15 1003.01 1003.01 1003.16 1003.47 1003.91 1004.44 1005.03 1005.61 1006.14 1006.58 1006.92 1007.16 1007.31 1007.42 1007.52 1007.65 1007.86 1008.15 1008.52 1008.98 1009.50 1010.05 1010.61 1011.15 1011.67
1010.03 1009.50 1008.91 1008.30 1007.68 1007.08 1006.53 1006.05 1005.62 1005.24 1004.89 1004.56 1004.22 1003.86 1003.49 1003.12 1002.78 1002.50 1002.34 1002.31 1002.44 1002.74 1003.18 1003.72 1004.33 1004.94 1005.51 1006.00 1006.38 1006.65 1006.83 1006.96 1007.07 1007.20 1007.39 1007.67 1008.05 1008.51 1009.05 1009.64 1010.25 1010.86 1011.46
1009.56 1008.98 1008.36 1007.71 1007.05 1006.43 1005.86 1005.36 1004.93 1004.55 1004.22 1003.90 1003.58 1003.25 1002.90 1002.55 1002.22 1001.96 1001.80 1001.77 1001.90 1002.18 1002.61 1003.15 1003.75 1004.37 1004.94 1005.44 1005.83 1006.12 1006.31 1006.45 1006.57 1006.70 1006.90 1007.19 1007.58 1008.06 1008.63 1009.26 1009.92 1010.59 1011.27
1009.04 1008.44 1007.78 1007.09 1006.41 1005.75 1005.15 1004.63 1004.18 1003.81 1003.49 1003.20 1002.92 1002.63 1002.34 1002.05 1001.77 1001.56 1001.43 1001.42 1001.56 1001.84 1002.25 1002.76 1003.33 1003.92 1004.46 1004.94 1005.31 1005.59 1005.78 1005.93 1006.06 1006.21 1006.43 1006.74 1007.15 1007.67 1008.27 1008.95 1009.66 1010.38 1011.11
1008.54 1007.92 1007.24 1006.51 1005.79 1005.09 1004.46 1003.91 1003.45 1003.08 1002.77 1002.52 1002.29 1002.08 1001.86 1001.65 1001.46 1001.32 1001.25 1001.28 1001.43 1001.71 1002.09 1002.55 1003.07 1003.59 1004.07 1004.49 1004.83 1005.08 1005.27 1005.41 1005.55 1005.73 1005.99 1006.33 1006.79 1007.35 1007.99 1008.71 1009.46 1010.22 1010.97
1008.11 1007.47 1006.76 1006.00 1005.24 1004.51 1003.84 1003.27 1002.80 1002.43 1002.14 1001.93 1001.77 1001.63 1001.51 1001.40 1001.31 1001.25 1001.24 1001.31 1001.47 1001.73 1002.06 1002.46 1002.89 1003.33 1003.73 1004.08 1004.36 1004.58 1004.75 1004.90 1005.06 1005.28 1005.57 1005.97 1006.47 1007.08 1007.76 1008.51 1009.28 1010.06 1010.82
1007.75 1007.09 1006.35 1005.57 1004.77 1004.01 1003.32 1002.73 1002.25 1001.89 1001.64 1001.48 1001.39 1001.33 1001.30 1001.29 1001.28 1001.30 1001.35 1001.45 1001.60 1001.82 1002.09 1002.40 1002.73 1003.06 1003.37 1003.64 1003.86 1004.05 1004.21 1004.37 1004.57 1004.83 1005.17 1005.62 1006.17 1006.82 1007.54 1008.30 1009.08 1009.86 1010.60
1007.45 1006.76 1005.99 1005.18 1004.36 1003.59 1002.88 1002.29 1001.82 1001.49 1001.28 1001.17 1001.14 1001.17 1001.22 1001.28 1001.35 1001.41 1001.49 1001.58 1001.71 1001.86 1002.05 1002.26 1002.49 1002.72 1002.94 1003.13 1003.31 1003.47 1003.63 1003.82 1004.05 1004.36 1004.76 1005.26 1005.85 1006.53 1007.26 1008.03 1008.80 1009.55 1010.27
1007.15 1006.43 1005.63 1004.79 1003.96 1003.18 1002.48 1001.91 1001.47 1001.18 1001.02 1000.97 1001.00 1001.09 1001.21 1001.32 1001.42 1001.51 1001.58 1001.64 1001.70 1001.78 1001.88 1001.99 1002.11 1002.25 1002.39 1002.53 1002.67 1002.83 1003.01 1003.23 1003.51 1003.88 1004.32 1004.87 1005.49 1006.18 1006.91 1007.66 1008.41 1009.12 1009.80
1006.82 1006.04 1005.21 1004.35 1003.51 1002.74 1002.07 1001.53 1001.15 1000.91 1000.81 1000.82 1000.91 1001.05 1001.20 1001.34 1001.44 1001.51 1001.54 1001.54 1001.53 1001.52 1001.52 1001.53 1001.57 1001.64 1001.73 1001.84 1001.98 1002.15 1002.37 1002.64 1002.97 1003.38 1003.87 1004.44 1005.07 1005.76 1006.47 1007.19 1007.90 1008.58 1009.21
1006.41 1005.58 1004.71 1003.83 1002.99 1002.24 1001.61 1001.13 1000.81 1000.64 1000.60 1000.67 1000.81 1000.98 1001.14 1001.27 1001.35 1001.37 1001.34 1001.27 1001.18 1001.08 1001.00 1000.94 1000.92 1000.94 1001.01 1001.12 1001.29 1001.50 1001.76 1002.08 1002.46 1002.91 1003.42 1004.00 1004.63 1005.29 1005.98 1006.66 1007.32 1007.96 1008.55
1005.93 1005.05 1004.13 1003.24 1002.41 1001.69 1001.12 1000.70 1000.44 1000.34 1000.36 1000.48 1000.65 1000.83 1000.99 1001.10 1001.13 1001.10 1001.00 1000.85 1000.68 1000.52 1000.37 1000.27 1000.22 1000.24 1000.32 1000.46 1000.66 1000.92 1001.24 1001.60 1002.02 1002.49 1003.02 1003.59 1004.19 1004.82 1005.47 1006.11 1006.73 1007.33 1007.90
1005.43 1004.49 1003.54 1002.64 1001.82 1001.14 1000.61 1000.25 1000.05 1000.01 1000.08 1000.24 1000.43 1000.61 1000.74 1000.81 1000.80 1000.70 1000.54 1000.34 1000.12 999.90 999.73 999.62 999.58 999.61 999.73 999.92 1000.17 1000.49 1000.84 1001.25 1001.69 1002.17 1002.68 1003.23 1003.80 1004.39 1004.99 1005.59 1006.19 1006.77 1007.33
1004.96 1003.98 1003.01 1002.10 1001.30 1000.64 1000.16 999.84 999.69 999.69 999.79 999.96 1000.15 1000.31 1000.42 1000.44 1000.38 1000.24 1000.04 999.80 999.55 999.33 999.16 999.07 999.06 999.14 999.31 999.55 999.86 1000.21 1000.60 1001.02 1001.47 1001.94 1002.43 1002.94 1003.47 1004.02 1004.58 1005.16 1005.74 1006.32 1006.89
1004.60 1003.59 1002.61 1001.70 1000.92 1000.29 999.83 999.54 999.41 999.42 999.53 999.68 999.85 999.98 1000.05 1000.04 999.94 999.76 999.54 999.29 999.05 998.85 998.71 998.67 998.71 998.85 999.07 999.36 999.71 1000.10 1000.50 1000.92 1001.35 1001.79 1002.25 1002.72 1003.21 1003.73 1004.27 1004.84 1005.42 1006.01 1006.60
1004.38 1003.38 1002.40 1001.51 1000.74 1000.13 999.67 999.39 999.26 999.25 999.33 999.45 999.57 999.65 999.68 999.63 999.50 999.32 999.09 998.86 998.65 998.50 998.42 998.43 998.53 998.73 999.00 999.33 999.70 1000.10 1000.50 1000.90 1001.31 1001.71 1002.13 1002.57 1003.03 1003.53 1004.06 1004.63 1005.22 1005.83 1006.45
1004.35 1003.37 1002.42 1001.55 1000.80 1000.19 999.73 999.42 999.26 999.20 999.22 999.28 999.34 999.37 999.34 999.26 999.12 998.93 998.72 998.53 998.37 998.27 998.26 998.33 998.49 998.74 999.04 999.40 999.77 1000.16 1000.54 1000.92 1001.29 1001.66 1002.05 1002.46 1002.90 1003.40 1003.93 1004.51 1005.13 1005.77 1006.41
1004.46 1003.53 1002.63 1001.80 1001.06 1000.45 999.97 999.63 999.40 999.28 999.22 999.20 999.18 999.15 999.07 998.95 998.80 998.62 998.45 998.30 998.19 998.16 998.20 998.33 998.54 998.82 999.15 999.51 999.88 1000.25 1000.60 1000.95 1001.28 1001.62 1001.99 1002.38 1002.83 1003.32 1003.88 1004.48 1005.12 1005.78 1006.44
1004.68 1003.82 1002.98 1002.18 1001.47 1000.86 1000.35 999.96 999.67 999.47 999.33 999.21 999.12 999.01 998.88 998.73 998.57 998.41 998.26 998.16 998.11 998.13 998.23 998.40 998.65 998.94 999.28 999.63 999.98 1000.33 1000.65 1000.97 1001.28 1001.61 1001.96 1002.35 1002.80 1003.30 1003.87 1004.49 1005.14 1005.82 1006.48
1004.93 1004.16 1003.39 1002.65 1001.96 1001.35 1000.83 1000.39 1000.03 999.75 999.51 999.31 999.13 998.96 998.78 998.61 998.44 998.29 998.17 998.11 998.10 998.17 998.31 998.52 998.78 999.09 999.42 999.76 1000.10 1000.42 1000.72 1001.02 1001.31 1001.63 1001.97 1002.37 1002.82 1003.33 1003.91 1004.53 1005.19 1005.85 1006.50
Thickness
5621 5619 5616 5615 5613 5611 5609 5608 5607 5606 5604 5603 5604 5605 5606 5607 5608 5610 5616 5619 5622 5627 5631 5635 5640 5645 5652 5662 5670 5676 5682 5686 5687 5695 5701 5704 5703 5706 5706 5706 5706 5705 5704
5613 5610 5607 5604 5601 5598 5596 5593 5590 5588 5587 5587 5587 5589 5591 5594 5596 5598 5601 5606 5610 5614 5618 5620 5625 5630 5636 5645 5655 5664 5671 5677 5680 5683 5689 5695 5696 5699 5699 5698 5697 5696 5695
5603 5599 5595 5591 5588 5583 5579 5574 5570 5568 5567 5567 5568 5570 5573 5577 5581 5585 5589 5594 5597 5602 5607 5610 5613 5616 5622 5630 5638 5648 5658 5667 5673 5677 5680 5687 5691 5692 5690 5689 5687 5686 5685
5592 5587 5583 5578 5572 5567 5561 5555 5550 5546 5544 5545 5547 5550 5555 5559 5564 5570 5575 5581 5585 5589 5594 5599 5603 5606 5612 5618 5625 5633 5643 5653 5662 5669 5673 5678 5683 5685 5684 5681 5678 5677 5676
5581 5576 5571 5565 5558 5551 5544 5536 5529 5524 5521 5520 5523 5528 5535 5541 5548 5555 5561 5567 5571 5576 5581 5586 5593 5597 5602 5607 5616 5622 5629 5638 5649 5658 5664 5671 5677 5678 5679 5678 5673 5669 5667
5570 5564 5558 5551 5544 5536 5527 5519 5512 5505 5500 5498 5500 5506 5514 5524 5533 5538 5545 5553 5561 5566 5570 5574 5581 5585 5590 5596 5605 5612 5617 5624 5634 5647 5656 5664 5671 5675 5676 5672 5667 5666 5661
5560 5553 5547 5539 5531 5522 5513 5504 5496 5489 5484 5481 5483 5488 5496 5506 5514 5521 5528 5539 5549 5554 5559 5563 5570 5578 5581 5587 5593 5600 5607 5614 5621 5630 5644 5656 5664 5669 5670 5667 5666 5666 5662
5553 5546 5537 5529 5520 5511 5501 5492 5484 5476 5471 5469 5470 5474 5482 5493 5501 5507 5516 5526 5537 5546 5551 5554 5559 5567 5571 5577 5585 5592 5599 5607 5614 5622 5634 5647 5656 5662 5664 5665 5663 5655 5650
5547 5539 5530 5521 5512 5503 5494 5484 5476 5469 5465 5462 5462 5466 5473 5483 5491 5499 5506 5520 5529 5538 5544 5549 5553 5557 5560 5566 5577 5586 5593 5602 5609 5615 5624 5634 5643 5652 5657 5656 5651 5647 5640
5541 5533 5525 5516 5507 5499 5491 5482 5474 5466 5461 5459 5459 5462 5468 5477 5485 5493 5499 5515 5524 5532 5537 5543 5544 5549 5550 5555 5566 5575 5585 5596 5605 5612 5618 5626 5635 5643 5648 5652 5651 5648 5640
5536 5528 5521 5513 5506 5499 5491 5482 5474 5467 5462 5460 5459 5462 5467 5474 5481 5488 5495 5510 5521 5527 5535 5539 5543 5540 5542 5546 5554 5566 5577 5588 5598 5608 5616 5625 5632 5637 5642 5647 5649 5649 5644
5532 5526 5520 5514 5506 5500 5492 5484 5477 5470 5464 5463 5462 5465 5468 5474 5480 5486 5492 5502 5511 5523 5532 5539 5541 5536 5537 5539 5546 5556 5564 5574 5589 5601 5611 5620 5627 5632 5636 5639 5640 5641 5641
5530 5525 5520 5514 5507 5500 5494 5487 5480 5473 5468 5466 5466 5468 5472 5476 5479 5483 5488 5497 5504 5515 5527 5529 5531 5530 5532 5537 5541 5548 5555 5569 5583 5595 5606 5616 5623 5628 5628 5628 5627 5627 5626
5528 5524 5520 5515 5510 5504 5497 5490 5483 5477 5472 5470 5469 5471 5474 5478 5482 5487 5493 5497 5501 5510 5520 5525 5524 5527 5531 5539 5544 5548 5557 5568 5578 5590 5602 5610 5616 5619 5621 5622 5621 5619 5617
5528 5524 5520 5516 5512 5507 5502 5495 5488 5481 5473 5469 5470 5471 5474 5479 5482 5486 5495 5502 5510 5517 5523 5528 5533 5536 5539 5544 5550 5556 5561 5567 5573 5583 5593 5603 5608 5612 5614 5616 5617 5618 5618
5527 5525 5522 5519 5515 5511 5507 5502 5494 5483 5475 5469 5466 5465 5472 5473 5475 5481 5487 5493 5500 5508 5516 5528 5533 5538 5544 5549 5553 5557 5561 5565 5571 5579 5588 5597 5604 5608 5610 5611 5615 5617 5619
5527 5525 5523 5521 5518 5515 5511 5507 5502 5493 5481 5474 5471 5469 5469 5471 5474 5479 5484 5489 5495 5501 5513 5526 5533 5539 5545 5550 5555 5559 5561 5565 5569 5576 5584 5593 5600 5603 5606 5609 5613 5616 5617
5530 5528 5525 5524 5522 5519 5515 5512 5506 5501 5495 5488 5479 5474 5474 5475 5477 5480 5484 5489 5499 5503 5515 5525 5532 5538 5544 5549 5554 5557 5559 5563 5567 5574 5581 5589 5597 5601 5604 5607 5612 5615 5617
5532 5531 5529 5528 5526 5524 5521 5517 5512 5506 5501 5496 5491 5485 5480 5480 5481 5483 5487 5500 5509 5512 5517 5524 5531 5537 5542 5547 5551 5553 5556 5559 5565 5572 5579 5587 5595 5599 5602 5606 5610 5610 5614
5534 5532 5531 5531 5531 5529 5526 5521 5517 5512 5507 5503 5499 5496 5493 5492 5494 5494 5497 5504 5511 5516 5520 5525 5531 5537 5541 5544 5547 5549 5551 5555 5561 5569 5578 5586 5592 5597 5600 5603 5606 5607 5610
5535 5535 5535 5536 5535 5533 5529 5525 5521 5516 5513 5510 5507 5502 5493 5504 5505 5505 5508 5511 5516 5520 5524 5528 5533 5537 5539 5541 5543 5545 5548 5553 5560 5569 5578 5584 5590 5594 5596 5599 5601 5604 5606
5536 5537 5539 5540 5538 5535 5532 5528 5524 5520 5518 5515 5513 5510 5500 5509 5514 5515 5516 5518 5520 5523 5527 5530 5534 5537 5539 5540 5541 5542 5547 5552 5560 5569 5577 5582 5587 5591 5593 5596 5598 5601 5604
5539 5540 5541 5541 5540 5535 5535 5532 5528 5524 5520 5518 5517 5516 5515 5516 5517 5517 5519 5521 5522 5524 5526 5529 5532 5535 5537 5538 5539 5542 5547 5554 5561 5569 5577 5583 5588 5592 5594 5596 5598 5599 5600
5540 5540 5541 5542 5542 5541 5539 5536 5531 5528 5524 5521 5519 5519 5518 5517 5518 5519 5520 5522 5523 5525 5527 5530 5532 5534 5535 5536 5538 5543 5549 5556 5564 5572 5580 5586 5590 5592 5593 5593 5594 5595 5597
5539 5540 5541 5541 5542 5542 5540 5538 5534 5530 5525 5523 5521 5520 5520 5519 5520 5521 5522 5524 5526 5527 5530 5531 5532 5533 5535 5538 5542 5547 5552 5559 5567 5576 5583 5588 5590 5590 5591 5590 5591 5592 5593
5539 5538 5539 5540 5541 5542 5541 5539 5537 5532 5528 5526 5524 5524 5523 5523 5524 5526 5528 5530 5531 5531 5532 5533 5534 5535 5538 5542 5546 5550 5555 5562 5570 5577 5584 5586 5587 5588 5588 5588 5588 5588 5588